Tracking 30970 objects as of 3-Jul-2025
HD Live streaming from Space Station
objects crossing your sky now

COSMOS 1275 DEB

Track COSMOS 1275 DEB now!
10-day predictions


NORAD ID: 13802
Int'l Code: 1981-053GZ
Perigee: 927.9 km
Apogee: 1,019.7 km
Inclination: 82.8 °
Period: 104.4 minutes
Semi major axis: 7344 km
RCS: 0.052 m2 (small)
Launch date: June 4, 1981
Source: Commonwealth of Independent States (former USSR) (CIS)
Launch site: PLESETSK MISSILE AND SPACE COMPLEX (PKMTR)

Note: This is SATELLITE DEBRIS
Your satellite tracking list
STARLINK-5631
Track 1 satellite(s)




NASA's NSSDC Master Catalog

Two Line Element Set (TLE):
1 13802U 81053GW  25183.55913291  .00000583  00000-0  54635-3 0  9997
2 13802  82.8022 347.5785 0062496 121.2368 309.4678 13.79229301177220
Source of the keplerian elements: AFSPC